EW3867 Weather Reports


Display with metric or nautical units.
time (UTC)temp
F
wind
direction
speed
MPH
gust
MPH
rain 1hr
in
rain 24hr
in
rain mn
in
humidity
%
barometer
mb
20260831065219 59 27 10.0 13.0 0.00 0.16 0.00 74 1009.4
20260831064234 59 22 11.0 15.0 0.00 0.16 0.00 75 1009.4
20260831063256 59 19 13.0 15.0 0.00 0.16 0.00 75 1009.3
20260831062305 59 24 13.0 18.0 0.00 0.16 0.00 75 1009.1
20260831061316 59 38 13.0 18.0 0.00 0.16 0.00 75 1008.8
20260831060319 59 27 11.0 16.0 0.00 0.16 0.00 76 1008.9
20260831055337 59 30 14.0 19.0 0.00 0.16 0.16 75 1008.8
20260831054339 59 32 14.0 19.0 0.00 0.16 0.16 75 1008.9
20260831053333 59 30 11.0 15.0 0.00 0.16 0.16 77 1009.1
20260831052342 58 38 3.0 14.0 0.00 0.16 0.16 78 1009.3
20260831051353 58 132 0.0 0.0 0.00 0.16 0.16 80 1009.2
20260831045221 58 132 0.0 2.0 0.00 0.16 0.16 80 1009.4
20260831044233 58 136 0.0 0.0 0.00 0.16 0.16 80 1009.2
20260831043236 58 136 1.0 0.0 0.00 0.16 0.16 79 1009.4
20260831042225 59 44 7.0 12.0 0.00 0.16 0.16 79 1008.9
20260831041242 59 36 7.0 15.0 0.00 0.16 0.16 78 1008.9
20260831040225 60 24 11.0 15.0 0.00 0.16 0.16 76 1008.8
20260831034153 60 36 10.0 13.0 0.00 0.16 0.16 75 1008.5
20260831033132 60 44 10.0 13.0 0.00 0.16 0.16 77 1008.6
20260831030943 59 33 13.0 17.0 0.00 0.16 0.16 80 1008.4
20260831025958 59 16 13.0 17.0 0.00 0.16 0.16 80 1008.4
20260831025001 59 28 14.0 17.0 0.00 0.16 0.16 81 1008.2
20260831023940 59 25 14.0 19.0 0.00 0.16 0.16 83 1007.9
20260831022912 60 13 18.0 22.0 0.00 0.16 0.16 83 1008.1
20260831020814 60 5 15.0 18.0 0.00 0.16 0.16 82 1008.3
20260831015806 60 0 14.0 19.0 0.04 0.16 0.16 81 1008.1
20260831014758 60 346 11.0 22.0 0.13 0.16 0.16 83 1008.1
20260831013750 61 0 13.0 22.0 0.35 0.13 0.13 80 1008.0
20260831012750 65 271 3.0 7.0 0.06 0.09 0.09 73 1007.4
20260831011751 69 134 13.0 22.0 0.57 0.08 0.08 62 1005.8
20260831010800 76 150 0.0 16.0 0.00 0.00 0.00 38 1005.8
20260831005729 76 0 0.0 0.0 0.00 0.00 0.00 36 1005.5
20260831004705 76 0 0.0 0.0 0.00 0.00 0.00 35 1005.5
20260831003634 77 0 0.0 0.0 0.00 0.00 0.00 35 1005.6
20260831001526 77 0 0.0 8.0 0.00 0.00 0.00 34 1005.7
20260831000541 77 0 4.0 12.0 0.00 0.00 0.00 34 1005.7
20260830235528 76 0 1.0 11.0 0.00 0.00 0.00 36 1005.9
20260830234541 76 0 0.0 4.0 0.00 0.00 0.00 36 1006.0
20260830233512 77 0 0.0 7.0 0.00 0.00 0.00 35 1005.9
20260830232445 77 0 0.0 4.0 0.00 0.00 0.00 34 1005.8
20260830230340 78 0 4.0 15.0 0.00 0.00 0.00 32 1005.8
20260830225355 79 0 8.0 15.0 0.00 0.00 0.00 31 1006.0
20260830224343 78 0 11.0 19.0 0.00 0.00 0.00 31 1006.1
20260830222129 82 250 11.0 19.0 0.00 0.00 0.00 32 1005.7
20260830221149 81 251 11.0 19.0 0.00 0.00 0.00 30 1005.9
20260830220118 83 269 9.0 19.0 0.00 0.00 0.00 27 1005.8
20260830215056 84 256 14.0 23.0 0.00 0.00 0.00 26 1005.8
20260830214045 84 242 9.0 23.0 0.00 0.00 0.00 27 1005.9
20260830213033 83 224 7.0 16.0 0.00 0.00 0.00 27 1006.0
20260830212030 84 228 4.0 15.0 0.00 0.00 0.00 25 1006.0
20260830205905 84 225 6.0 21.0 0.00 0.00 0.00 26 1006.2
20260830204930 84 223 8.0 21.0 0.00 0.00 0.00 30 1006.6
20260830203948 83 270 7.0 17.0 0.00 0.00 0.00 29 1006.9
20260830201802 82 246 4.0 16.0 0.00 0.00 0.00 30 1007.3
20260830200754 82 245 6.0 16.0 0.00 0.00 0.00 31 1007.5
20260830194624 79 173 0.0 1.0 0.00 0.00 0.00 37 1007.8
20260830193604 80 173 0.0 2.0 0.00 0.00 0.00 36 1007.9
20260830192535 79 173 0.0 0.0 0.00 0.00 0.00 38 1008.0
20260830191507 79 170 0.0 1.0 0.00 0.00 0.00 38 1008.1
20260830190529 80 163 4.0 13.0 0.00 0.00 0.00 37 1008.3
20260830185458 80 192 1.0 8.0 0.00 0.00 0.00 38 1008.5
20260830184447 79 191 0.0 8.0 0.00 0.00 0.00 39 1008.6
20260830183506 78 192 1.0 10.0 0.00 0.00 0.00 40 1008.9
20260830182518 78 229 0.0 1.0 0.00 0.00 0.00 40 1009.1
20260830181455 77 246 0.0 1.0 0.00 0.00 0.00 41 1009.2
20260830180424 77 213 0.0 0.0 0.00 0.00 0.00 41 1009.5
20260830175403 77 152 0.0 0.0 0.00 0.00 0.00 42 1009.6
20260830174401 76 143 0.0 8.0 0.00 0.00 0.00 43 1009.7
20260830173411 75 143 0.0 0.0 0.00 0.00 0.00 46 1009.8
20260830172420 74 142 3.0 9.0 0.00 0.00 0.00 48 1009.9
20260830171424 73 128 4.0 10.0 0.00 0.00 0.00 49 1010.0
20260830170415 72 125 3.0 8.0 0.00 0.00 0.00 49 1010.1
20260830163131 70 144 0.0 0.0 0.00 0.00 0.00 55 1009.9
20260830162141 69 144 3.0 0.0 0.00 0.00 0.00 55 1009.9
20260830161152 70 138 0.0 10.0 0.00 0.00 0.00 54 1009.8
20260830160145 69 102 0.0 0.0 0.00 0.00 0.00 55 1009.8
20260830155122 69 81 0.0 9.0 0.00 0.00 0.00 55 1009.8
20260830154126 68 61 0.0 0.0 0.00 0.00 0.00 56 1009.8
20260830153137 67 56 0.0 0.0 0.00 0.00 0.00 57 1009.5
20260830152123 67 56 0.0 0.0 0.00 0.00 0.00 59 1009.5
20260830151055 67 56 0.0 0.0 0.00 0.00 0.00 60 1009.6
20260830150116 66 56 0.0 0.0 0.00 0.00 0.00 60 1009.6
20260830145109 66 56 0.0 0.0 0.00 0.00 0.00 62 1009.5
20260830144041 65 56 0.0 0.0 0.00 0.00 0.00 64 1009.5
20260830143050 65 56 0.0 0.0 0.00 0.00 0.00 62 1009.4
20260830142017 65 56 0.0 0.0 0.00 0.00 0.00 63 1009.3
20260830141018 64 56 0.0 0.0 0.00 0.00 0.00 63 1009.2
20260830133801 63 44 0.0 0.0 0.00 0.00 0.00 64 1009.0
20260830132803 62 44 0.0 0.0 0.00 0.00 0.00 65 1008.9
20260830131744 62 44 0.0 0.0 0.00 0.00 0.00 66 1008.7
20260830130759 61 44 0.0 0.0 0.00 0.00 0.00 67 1008.6
20260830125736 61 43 0.0 0.0 0.00 0.00 0.00 67 1008.5
20260830124800 61 44 0.0 0.0 0.00 0.00 0.00 67 1008.4
20260830122715 61 39 0.0 0.0 0.00 0.00 0.00 68 1008.4
20260830121713 61 39 0.0 0.0 0.00 0.00 0.00 68 1008.3
20260830120643 61 39 0.0 0.0 0.00 0.00 0.00 68 1008.2
20260830115628 61 39 0.0 0.0 0.00 0.00 0.00 68 1008.2
20260830114637 61 39 0.0 0.0 0.00 0.00 0.00 68 1008.2
20260830113657 61 39 0.0 0.0 0.00 0.00 0.00 68 1008.2
20260830112659 61 39 0.0 5.0 0.00 0.00 0.00 68 1008.1
20260830111714 61 39 0.0 8.0 0.00 0.00 0.00 69 1007.9
20260830110722 61 39 4.0 0.0 0.00 0.00 0.00 69 1007.8
20260830105743 60 40 4.0 12.0 0.00 0.00 0.00 69 1008.0
20260830104752 60 40 3.0 11.0 0.00 0.00 0.00 70 1007.8
20260830103735 60 41 1.0 0.0 0.00 0.00 0.00 70 1007.9
20260830102736 60 41 3.0 9.0 0.00 0.00 0.00 70 1008.0
20260830101709 60 40 4.0 0.0 0.00 0.00 0.00 71 1008.0
20260830100706 59 41 0.0 0.0 0.00 0.00 0.00 71 1008.0
20260830094557 60 40 1.0 10.0 0.00 0.00 0.00 70 1008.2
20260830093538 59 40 0.0 0.0 0.00 0.00 0.00 71 1007.9
20260830092506 59 40 0.0 0.0 0.00 0.00 0.00 72 1007.7
20260830091505 59 41 0.0 0.0 0.00 0.00 0.00 71 1007.6
20260830090448 60 40 0.0 0.0 0.00 0.00 0.00 71 1007.8
20260830085505 60 40 0.0 0.0 0.00 0.00 0.00 70 1007.9
20260830084511 60 41 4.0 0.0 0.00 0.00 0.00 70 1007.9
20260830083452 60 41 0.0 9.0 0.00 0.00 0.00 71 1007.9
20260830081317 60 40 0.0 0.0 0.00 0.00 0.00 70 1007.9
20260830075142 60 41 1.0 0.0 0.00 0.00 0.00 71 1007.9
20260830074159 60 40 7.0 11.0 0.00 0.00 0.00 73 1008.1
20260830073206 60 40 4.0 9.0 0.00 0.00 0.00 73 1008.0
20260830072151 59 41 4.0 11.0 0.00 0.00 0.00 75 1007.9
20260830071200 59 88 0.0 7.0 0.00 0.00 0.00 76 1007.9
20260830070219 60 90 0.0 0.0 0.00 0.00 0.00 76 1007.9